Location: Biltmore Gardens
(41.6070°N, 83.4666°W)
Time: 14:00:41
(UTC+00:00)

SL-08 R/B - Pass Details

Date: 14 July 2020
Orbit: 675 x 738 km, 98.4° (Epoch: 04 August)

Event Time Altitude Azimuth Distance (km) Brightness Sun altitude
Exits shadow 07:58:12 - 148° (SSE) 2,244 5.7 -19.2°
Reaches altitude 10° 07:58:25 10° 147° (SSE) 2,157 5.6 -19.1°
Maximum altitude 08:03:00 52° 72° (ENE) 880 4.1 -18.6°
Drops below altitude 10° 08:07:42 10° 356° (N) 2,212 6.6 -18.1°
Sets 08:10:03 0° 352° (N) 3,146 7.4 -17.9°
